Regional Weather Roundup
Issued by NWS

Home | Current Version | Previous Version | Text Only | Print | Product List | Glossary Off
Versions: 1 2 3 4 5 6 7 8 9 10 11 12 13 14 15 16 17 18 19 20 21 22 23 24 25 26 27 28 29 30 31 32 33 34 35 36 37 38 39 40 41 42 43 44 45 46 47 48 49 50

000
ASUS43 KOAX 181602
RWRNE

WEATHER ROUNDUP FOR NEBRASKA
NATIONAL WEATHER SERVICE OMAHA NE
1000 AM CST THU JAN 18 2018

NOTES: SATELLITE DATA IS BEING USED TO AUGMENT CLOUD COVER ABOVE
       12000 FEET.
       "FAIR" INDICATES FEW OR NO CLOUDS BELOW 12,000 FEET WITH NO
       SIGNIFICANT WEATHER AND/OR OBSTRUCTIONS TO VISIBILITY.


NEZ001>004-019>022-054>056-181700-
NEBRASKA PANHANDLE

CITY           SKY/WX    TMP DP  RH WIND       PRES   REMARKS
SCOTTSBLUFF    PTSUNNY   32  23  69 NW8       30.01F WCI  25
ALLIANCE       CLOUDY    22  20  92 CALM      30.00R
CHADRON        CLOUDY    33  25  72 W3        29.98S
GORDON         FAIR      39  24  55 W13       29.95R WCI  31
KIMBALL        MOSUNNY   38  20  48 W12       30.06S WCI  31
SIDNEY         PTSUNNY   36  21  54 W10       30.05S WCI  28
$$

NEZ057>060-069>072-079>082-181700-
SOUTHWEST NEBRASKA

CITY           SKY/WX    TMP DP  RH WIND       PRES   REMARKS
NORTH PLATTE   CLOUDY    29  23  78 W6        30.04R WCI  23
IMPERIAL       CLOUDY    32  20  61 W13       30.07R WCI  22
LEXINGTON      MOSUNNY   28  22  79 W3        30.04S
MCCOOK         PTSUNNY   28  19  69 W15       30.07R WCI  16
OGALLALA       CLOUDY    28  23  79 W12       30.04S WCI  18
$$

NEZ005>010-023>029-035>040-094-181700-
NORTH CENTRAL NEBRASKA

CITY           SKY/WX    TMP DP  RH WIND       PRES   REMARKS
VALENTINE      CLOUDY    30  24  78 SW5       29.94R WCI  25
AINSWORTH      CLOUDY    36  26  68 W9        29.94S WCI  29
BROKEN BOW     PTSUNNY   33  21  61 VRB3      29.99R
O`NEILL        MOSUNNY   34  24  67 SW8       29.95R WCI  27
ORD            MOSUNNY   23  18  81 CALM      29.99R
THEDFORD       CLOUDY    37  26  66 W8        29.97F WCI  30
$$

NEZ041-046>049-061>064-073>077-083>087-181700-
SOUTH CENTRAL NEBRASKA

CITY           SKY/WX    TMP DP  RH WIND       PRES   REMARKS
GRAND ISLAND   CLOUDY    28  19  69 SW9       30.03F WCI  19
AURORA         CLOUDY    24  16  73 SW9       30.05S WCI  14
HASTINGS       CLOUDY    24  16  71 SW6       30.06R WCI  17
HEBRON         CLOUDY    23  13  64 SW8       30.12R WCI  14
HOLDREGE       CLOUDY    28  21  75 SW7       30.05S WCI  21
KEARNEY        CLOUDY    25  18  74 W9        30.04F WCI  15
YORK           CLOUDY    23  18  80 SW15      30.05F WCI  10
$$

NEZ011>018-030>034-042>045-181700-
NORTHEAST NEBRASKA

CITY           SKY/WX    TMP DP  RH WIND       PRES   REMARKS
NORFOLK        CLOUDY    28  19  69 S10       29.98R WCI  19
ALBION         CLOUDY    31  20  65 CALM      29.99S
BLAIR          MOSUNNY   24  13  65 S13       30.06R WCI  12
COLUMBUS       CLOUDY    26  17  68 W9        30.05R WCI  17
FREMONT        CLOUDY    25  14  61 S5        30.06R WCI  20
TEKAMAH        CLOUDY    23  13  65 S10       30.07R WCI  12
WAYNE          CLOUDY    31  20  64 S7        30.00R WCI  24
$$

NEZ050>053-065>068-078-088>093-181700-
SOUTHEAST NEBRASKA

CITY           SKY/WX    TMP DP  RH WIND       PRES   REMARKS
LINCOLN        CLOUDY    24  10  55 SW9       30.10R WCI  14
OMAHA EPPLEY   MOSUNNY   19  10  68 SE9       30.10R WCI   8
BEATRICE       CLOUDY    23  12  62 SW14      30.10F WCI  11
FALLS CITY     CLOUDY    23  10  57 S12       30.14F WCI  12
NEBRASKA CITY  CLOUDY    24  14  64 SW16      30.08S WCI  11
PLATTSMOUTH    MOSUNNY   23  12  64 SW8       30.10R WCI  14
$$

NEZ044-045-051>053-067-181700-
OMAHA AREA

CITY           SKY/WX    TMP DP  RH WIND       PRES   REMARKS
OMAHA EPPLEY   MOSUNNY   19  10  68 SE9       30.10R WCI   8
BLAIR          MOSUNNY   24  13  65 S13       30.06R WCI  12
FREMONT        CLOUDY    25  14  61 S5        30.06R WCI  20
MILLARD        CLOUDY    27  14  56 SW3       30.10R
OFFUTT AFB     SUNNY     21  10  63 SW5       30.10R WCI  15
PLATTSMOUTH    MOSUNNY   23  12  64 SW8       30.10R WCI  14
WAHOO          FAIR      26  13  58 S7        30.07R WCI  18
$$




USA.gov is the U.S. government's official web portal to all federal, state and local government web resources and services.